Date String (YYYY-MM-DD hh:mm:ss) UTC,Instrument flags,Ambient pressure (hPa),Sample flow (lpm),Bypass flow (lpm),Sample temperature (°C),Ambient temperature (°C),ASC tube jacket temperature (°C),LED temperature (°C),Box temperature (°C),Sample RH (%),Span deviation,Mass concentration (μg/m³),Mass concentration (μg/m³),Mass concentration (μg/m³)
DateTimeUTC,F1_M11,P_M11,Q1_M11,Q2_M11,T1_M11,T2_M11,T3_M11,T4_M11,T5_M11,U1_M11,ZSPAN_M11,X0_M11,X2_M11,X1_M11
2023-05-05 22:00:00,,0821.6,5.01,0.00,29.8,26.2,00.0,38.2,31.0,13.8,0000.0,0015.37,0004.39,0002.64
2023-05-05 22:01:00,,0821.7,4.99,0.00,29.7,26.5,00.0,38.2,31.1,13.8,0000.0,0015.12,0004.35,0002.62
2023-05-05 22:02:00,,0821.8,5.00,0.00,29.7,26.9,00.0,38.2,31.1,13.7,0000.0,0015.17,0004.30,0002.60
2023-05-05 22:03:00,,0821.8,5.00,0.00,29.7,27.1,00.0,38.2,31.1,13.6,0000.0,0015.22,0004.32,0002.57
2023-05-05 22:04:00,,0821.8,5.00,0.00,29.7,27.4,00.0,38.1,31.2,13.5,0000.0,0015.47,0004.37,0002.56
2023-05-05 22:05:00,,0821.8,5.01,0.00,29.7,27.5,00.0,38.1,31.2,13.7,0000.0,0014.88,0004.35,0002.53
2023-05-05 22:06:00,,0821.8,5.00,0.00,29.7,27.7,00.0,38.1,31.2,13.7,0000.0,0012.66,0004.25,0002.52
2023-05-05 22:07:00,,0821.8,4.99,0.00,29.7,27.8,00.0,38.1,31.2,13.3,0000.0,0010.72,0004.15,0002.52
2023-05-05 22:08:00,,0821.9,5.00,0.00,29.7,27.9,00.0,38.1,31.2,12.4,0000.0,0010.59,0004.16,0002.52
2023-05-05 22:09:00,,0821.9,5.00,0.00,29.7,28.0,00.0,38.1,31.3,11.9,0000.0,0011.48,0004.25,0002.53
2023-05-05 22:10:00,,0821.9,5.01,0.00,29.7,28.1,00.0,38.1,31.3,11.9,0000.0,0011.14,0004.22,0002.55
2023-05-05 22:11:00,,0821.8,5.01,0.00,29.7,28.1,00.0,38.1,31.2,11.1,0000.0,0011.08,0004.29,0002.54
2023-05-05 22:12:00,,0821.7,4.98,0.00,29.7,28.1,00.0,38.1,31.3,10.5,0000.0,0011.55,0004.43,0002.54
2023-05-05 22:13:00,,0821.8,5.01,0.00,29.8,28.2,00.0,38.1,31.3,10.2,0000.0,0013.56,0004.74,0002.56
2023-05-05 22:14:00,,0821.9,5.01,0.00,29.8,28.2,00.0,38.1,31.3,09.7,0000.0,0015.62,0005.01,0002.60
2023-05-05 22:15:00,,0821.9,4.98,0.00,29.8,28.2,00.0,38.1,31.3,09.6,0000.0,0016.99,0005.13,0002.60
2023-05-05 22:16:00,,0821.9,5.01,0.00,29.8,28.2,00.0,38.1,31.3,09.5,0000.0,0018.78,0005.26,0002.60
2023-05-05 22:17:00,,0821.9,5.01,0.00,29.8,28.2,00.0,38.1,31.3,09.4,0000.0,0019.29,0005.27,0002.58
2023-05-05 22:18:00,,0821.9,4.99,0.00,29.8,28.2,00.0,38.1,31.3,09.5,0000.0,0020.53,0005.27,0002.54
2023-05-05 22:19:00,,0822.0,4.99,0.00,29.8,28.1,00.0,38.1,31.3,09.6,0000.0,0020.76,0005.26,0002.49
2023-05-05 22:20:00,,0822.0,5.00,0.00,29.8,28.1,00.0,38.1,31.3,09.8,0000.0,0020.73,0005.21,0002.46
2023-05-05 22:21:00,,0821.9,5.01,0.00,29.8,28.2,00.0,38.1,31.3,09.7,0000.0,0021.05,0005.25,0002.42
2023-05-05 22:22:00,,0822.0,5.01,0.00,29.8,28.2,00.0,38.1,31.3,09.6,0000.0,0020.92,0005.20,0002.37
2023-05-05 22:23:00,,0822.1,5.01,0.00,29.8,28.2,00.0,38.2,31.3,09.7,0000.0,0020.61,0005.11,0002.34
2023-05-05 22:24:00,,0822.1,4.98,0.00,29.8,28.2,00.0,38.2,31.3,09.7,0000.0,0018.62,0004.88,0002.30
2023-05-05 22:25:00,,0822.0,5.02,0.00,29.8,28.2,00.0,38.2,31.4,09.6,0000.0,0016.70,0004.59,0002.24
2023-05-05 22:26:00,,0822.0,5.01,0.00,29.8,28.2,00.0,38.2,31.4,09.7,0000.0,0015.43,0004.48,0002.20
2023-05-05 22:27:00,,0822.0,4.98,0.00,29.8,28.2,00.0,38.2,31.4,09.7,0000.0,0014.73,0004.40,0002.16
2023-05-05 22:28:00,,0822.0,5.00,0.00,29.8,28.2,00.0,38.2,31.3,09.6,0000.0,0015.07,0004.38,0002.16
2023-05-05 22:29:00,,0822.0,5.01,0.00,29.8,28.2,00.0,38.2,31.4,09.7,0000.0,0014.23,0004.37,0002.17
2023-05-05 22:30:00,,0822.1,5.00,0.00,29.8,28.2,00.0,38.2,31.4,09.4,0000.0,0014.48,0004.36,0002.17
2023-05-05 22:31:00,,0822.1,5.00,0.00,29.8,28.2,00.0,38.2,31.4,09.3,0000.0,0014.19,0004.31,0002.14
2023-05-05 22:32:00,,0822.2,5.02,0.00,29.8,28.2,00.0,38.2,31.4,09.4,0000.0,0014.52,0004.30,0002.14
2023-05-05 22:33:00,,0822.1,5.00,0.00,29.8,28.2,00.0,38.2,31.4,09.1,0000.0,0014.79,0004.29,0002.16
2023-05-05 22:34:00,,0822.1,4.98,0.00,29.8,28.2,00.0,38.2,31.4,09.1,0000.0,0014.76,0004.30,0002.16
2023-05-05 22:35:00,,0822.1,4.99,0.00,29.8,28.2,00.0,38.2,31.4,09.1,0000.0,0016.02,0004.26,0002.14
2023-05-05 22:36:00,,0822.1,5.01,0.00,29.8,28.2,00.0,38.2,31.4,09.3,0000.0,0016.36,0004.27,0002.15
2023-05-05 22:37:00,,0822.1,5.00,0.00,29.8,28.2,00.0,38.2,31.4,09.3,0000.0,0016.31,0004.25,0002.16
2023-05-05 22:38:00,,0822.1,4.99,0.00,29.8,28.2,00.0,38.2,31.4,09.4,0000.0,0015.47,0004.19,0002.17
2023-05-05 22:39:00,,0822.1,4.99,0.00,29.8,28.2,00.0,38.2,31.4,09.5,0000.0,0014.13,0004.13,0002.14
2023-05-05 22:40:00,,0822.1,5.00,0.00,29.8,28.2,00.0,38.2,31.4,09.6,0000.0,0014.25,0004.14,0002.12
2023-05-05 22:41:00,,0822.0,5.00,0.00,29.8,28.2,00.0,38.2,31.3,09.5,0000.0,0014.19,0004.13,0002.10
2023-05-05 22:42:00,,0822.0,5.00,0.00,29.8,28.2,00.0,38.2,31.4,09.5,0000.0,0014.10,0004.22,0002.12
2023-05-05 22:43:00,,0822.0,5.00,0.00,29.9,28.2,00.0,38.2,31.4,09.3,0000.0,0013.98,0004.25,0002.13
2023-05-05 22:44:00,,0822.1,4.99,0.00,29.9,28.2,00.0,38.2,31.4,09.2,0000.0,0013.73,0004.22,0002.12
2023-05-05 22:45:00,,0822.2,5.01,0.00,29.9,28.2,00.0,38.2,31.4,09.3,0000.0,0013.94,0004.20,0002.13
2023-05-05 22:46:00,,0822.3,5.01,0.00,29.9,28.2,00.0,38.2,31.4,10.0,0000.0,0012.67,0004.21,0002.15
2023-05-05 22:47:00,,0822.3,5.00,0.00,29.9,28.3,00.0,38.2,31.4,09.9,0000.0,0012.49,0004.18,0002.13
2023-05-05 22:48:00,,0822.3,4.99,0.00,29.9,28.3,00.0,38.2,31.4,09.9,0000.0,0012.54,0004.16,0002.11
2023-05-05 22:49:00,,0822.4,5.01,0.00,29.9,28.3,00.0,38.2,31.4,09.9,0000.0,0012.67,0004.18,0002.11
2023-05-05 22:50:00,,0822.4,5.00,0.00,29.9,28.4,00.0,38.3,31.4,10.0,0000.0,0012.93,0004.24,0002.12
2023-05-05 22:51:00,,0822.4,4.99,0.00,29.9,28.4,00.0,38.3,31.5,09.9,0000.0,0012.75,0004.28,0002.13
2023-05-05 22:52:00,,0822.4,5.01,0.00,29.9,28.4,00.0,38.3,31.5,09.8,0000.0,0012.14,0004.28,0002.12
2023-05-05 22:53:00,,0822.4,5.01,0.00,29.9,28.4,00.0,38.3,31.5,09.5,0000.0,0011.67,0004.22,0002.12
2023-05-05 22:54:00,,0822.5,5.00,0.00,30.0,28.5,00.0,38.3,31.5,09.9,0000.0,0011.87,0004.21,0002.11
2023-05-05 22:55:00,,0822.4,4.99,0.00,30.0,28.5,00.0,38.3,31.5,09.9,0000.0,0011.39,0004.18,0002.12
2023-05-05 22:56:00,,0822.4,5.01,0.00,30.0,28.5,00.0,38.3,31.5,09.7,0000.0,0011.55,0004.21,0002.11
2023-05-05 22:57:00,,0822.4,5.01,0.00,30.0,28.6,00.0,38.3,31.5,09.7,0000.0,0011.45,0004.23,0002.10
2023-05-05 22:58:00,,0822.4,5.01,0.00,30.0,28.6,00.0,38.3,31.5,09.3,0000.0,0011.19,0004.19,0002.10
2023-05-05 22:59:00,,0822.4,4.99,0.00,30.0,28.6,00.0,38.3,31.5,09.3,0000.0,0010.92,0004.16,0002.10
